Flag for U.S.A. Weather past 2 weeks in Owensboro, Kentucky, U.S.A.

Now
79 °F

Sunny.


Feels Like: 80 °F
Forecast: 58 / 83 °F
Wind: 8 mph from Southeast

Location: Owensboro / Daviess

Current Time: Aug 28, 2015 at 12:47:02 PM

Latest Report: Aug 28, 2015 at 11:56 AM


Visibility: 10 mi

Pressure: 30.14 "Hg

Humidity: 52%

Dew point: 60 °F

Location of OwensboroLocation

Historic Weather in Owensboro — Graph

°F

Owensboro temperature yesterday

Maximum temperature yesterday: 80 °F (at 2:56 PM)
Minimum temperature yesterday: 56 °F (at 5:56 AM)
Average temperature yesterday: 70 °F

Past Weeks' High & Low Weather Summary

 TemperatureHumidityPressure
High91 °F (Aug 16, 2:56 PM)100% (Aug 18, 3:56 AM)30.18 "Hg (Aug 18, 3:56 AM)
Low53 °F (Aug 25, 5:56 AM)40% (Aug 24, 2:56 PM)29.79 "Hg (Aug 19, 4:56 PM)
Average73 °F74%30.05 "Hg
* Reported Aug 13 11:56 AM — Aug 28 11:56 AM, Owensboro, Weather by CustomWeather, © 2015

Note: Actual official high and low records may vary slightly from our data, if they occured in-between our weather recording intervals... More about our weather records

Advertising

Owensboro weather history for previous 24 hours

 ConditionsComfort  
Time TempWeatherWind HumidityBarometerVisibility
11:56 AM
Fri, Aug 28
79 °FSunny.8 mph52%30.14 "Hg10 mi
10:56 AM78 °FSunny.7 mph56%30.15 "Hg10 mi
9:56 AM74 °FSunny.7 mph64%30.15 "Hg10 mi
8:56 AM70 °FSunny.7 mph68%30.15 "Hg10 mi
7:56 AM66 °FSunny.6 mph76%30.15 "Hg10 mi
6:56 AM60 °FSunny.No wind87%30.14 "Hg10 mi
5:56 AM60 °FClear.No wind93%30.13 "Hg10 mi
4:56 AM60 °FClear.No wind93%30.12 "Hg10 mi
3:56 AM60 °FClear.No wind87%30.11 "Hg10 mi
2:56 AM61 °FClear.No wind83%30.10 "Hg10 mi
1:56 AM59 °FClear.No wind90%30.09 "Hg10 mi
12:56 AM64 °FClear.5 mph81%30.10 "Hg10 mi
11:56 PM
Thu, Aug 27
65 °FClear.No wind81%30.11 "Hg10 mi
10:56 PM65 °FClear.No wind81%30.10 "Hg10 mi
9:56 PM65 °FClear.No wind84%30.11 "Hg10 mi
8:56 PM70 °FClear.5 mph68%30.10 "Hg10 mi
7:56 PM73 °FClear.No wind59%30.09 "Hg10 mi
6:56 PM76 °FSunny.6 mph58%30.09 "Hg10 mi
5:56 PM79 °FSunny.5 mph48%30.09 "Hg10 mi
4:56 PM80 °FPassing clouds.6 mph47%30.10 "Hg10 mi
3:56 PM80 °FPartly sunny.6 mph47%30.10 "Hg10 mi
2:56 PM80 °FPartly sunny.8 mph47%30.11 "Hg10 mi
1:56 PM79 °FScattered clouds.8 mph48%30.12 "Hg10 mi
12:56 PM79 °FScattered clouds.9 mph48%30.11 "Hg10 mi
Weather by CustomWeather, © 2015

See weather overviewHow to use our weather pages